This is the latest recevied weather packets stored in our database for station/object KC5DAQ-29. If no packets are shown the sender has not sent any weather packets the latest 1 day(s).
| Time | Temp. | Humidity | Pressure | Rain* | Wind** | Luminosity | Snow |
|---|---|---|---|---|---|---|---|
| 1777991324 | 25° C | 100% | 1006.7 hPa | 0 mm | 1.79 m/s, 166° | 195 W/m² | - |
| 1777991265 | 25° C | 100% | 1006.7 hPa | 0 mm | 1.34 m/s, 172° | 153 W/m² | - |
| 1777991204 | 25° C | 100% | 1006.6 hPa | 0 mm | 0.89 m/s, 118° | 141 W/m² | - |
| 1777991144 | 25° C | 100% | 1006.6 hPa | 0 mm | 0.89 m/s, 141° | 141 W/m² | - |
| 1777991083 | 25° C | 100% | 1006.6 hPa | 0 mm | 1.34 m/s, 157° | 169 W/m² | - |
| 1777991025 | 25° C | 100% | 1006.6 hPa | 0 mm | 1.79 m/s, 113° | 169 W/m² | - |
| 1777990963 | 25° C | 100% | 1006.5 hPa | 0 mm | 2.24 m/s, 158° | 167 W/m² | - |
| 1777990905 | 25° C | 100% | 1006.4 hPa | 0 mm | 0.89 m/s, 124° | 195 W/m² | - |
| 1777990844 | 25° C | 100% | 1006.4 hPa | 0 mm | 0.45 m/s, 145° | 236 W/m² | - |
| 1777990783 | 25° C | 100% | 1006.4 hPa | 0 mm | 0.45 m/s, 145° | 257 W/m² | - |
| 1777990725 | 25° C | 100% | 1006.4 hPa | 0 mm | 0.45 m/s, 186° | 220 W/m² | - |
| 1777990664 | 25° C | 100% | 1006.4 hPa | 0 mm | 0.45 m/s, 154° | - | - |
| 1777990605 | 25° C | 100% | 1006.4 hPa | 0 mm | 0.89 m/s, 161° | - | - |
| 1777990546 | 24.44° C | 100% | 1006.5 hPa | 0 mm | 1.34 m/s, 168° | 223 W/m² | - |
| 1777990483 | 24.44° C | 100% | 1006.5 hPa | 0 mm | 1.34 m/s, 196° | 223 W/m² | - |
| 1777990424 | 24.44° C | 100% | 1006.6 hPa | 0 mm | 1.34 m/s, 193° | 223 W/m² | - |
| 1777990363 | 24.44° C | 100% | 1006.6 hPa | 0 mm | 1.34 m/s, 193° | 223 W/m² | - |
| 1777990304 | 24.44° C | 100% | 1006.7 hPa | 0 mm | 1.34 m/s, 193° | 223 W/m² | - |
| 1777990243 | 24.44° C | 100% | 1006.7 hPa | 0 mm | 1.34 m/s, 193° | 223 W/m² | - |
| 1777990182 | 24.44° C | 100% | 1006.7 hPa | 0 mm | 1.34 m/s, 193° | 223 W/m² | - |
| 1777990122 | 24.44° C | 100% | 1006.7 hPa | 0 mm | 1.34 m/s, 193° | 223 W/m² | - |
| 1777990063 | 24.44° C | 100% | 1006.7 hPa | 0 mm | 1.34 m/s, 193° | 223 W/m² | - |
| 1777989990 | 25° C | 100% | 1006.6 hPa | 0 mm | 1.34 m/s, 197° | 223 W/m² | - |
| 1777989931 | 25° C | 100% | 1006.6 hPa | 0 mm | 0.89 m/s, 195° | 151 W/m² | - |
| 1777989871 | 25° C | 100% | 1006.5 hPa | 0 mm | 0.89 m/s, 224° | 151 W/m² | - |
* Rain latest hour (hover to see other rain measurements)
** Current wind speed in m/s (hover to see current wind gust speed)